Date String (YYYY-MM-DD hh:mm:ss) UTC,Instrument flags,Ambient pressure (hPa),Sample flow (lpm),Bypass flow (lpm),Sample temperature (°C),Ambient temperature (°C),ASC tube jacket temperature (°C),LED temperature (°C),Box temperature (°C),Sample RH (%),Span deviation,Mass concentration (μg/m³),Mass concentration (μg/m³),Mass concentration (μg/m³)
DateTimeUTC,F1_M11,P_M11,Q1_M11,Q2_M11,T1_M11,T2_M11,T3_M11,T4_M11,T5_M11,U1_M11,ZSPAN_M11,X0_M11,X2_M11,X1_M11
2021-11-17 14:00:00,,0830.3,5.00,0.00,22.8,22.0,00.0,31.8,24.6,14.1,0000.0,0011.25,0003.69,0001.56
2021-11-17 14:01:00,,0830.3,5.00,0.00,22.8,22.0,00.0,31.8,24.6,14.1,0000.0,0011.58,0003.78,0001.59
2021-11-17 14:02:00,,0830.4,5.00,0.00,22.8,22.0,00.0,31.8,24.6,14.1,0000.0,0012.02,0003.75,0001.59
2021-11-17 14:03:00,,0830.4,5.00,0.00,22.8,22.0,00.0,31.8,24.6,14.1,0000.0,0012.11,0003.69,0001.61
2021-11-17 14:04:00,,0830.4,5.00,0.00,22.8,22.0,00.0,31.8,24.6,14.1,0000.0,0012.16,0003.69,0001.65
2021-11-17 14:05:00,,0830.5,4.99,0.00,22.8,22.0,00.0,31.8,24.6,14.0,0000.0,0011.61,0003.66,0001.68
2021-11-17 14:06:00,,0830.4,5.00,0.00,22.8,21.9,00.0,31.8,24.6,14.1,0000.0,0012.31,0003.71,0001.70
2021-11-17 14:07:00,,0830.4,5.01,0.00,22.7,21.9,00.0,31.8,24.5,14.1,0000.0,0011.93,0003.74,0001.71
2021-11-17 14:08:00,,0830.4,4.99,0.00,22.8,21.9,00.0,31.8,24.5,14.1,0000.0,0012.35,0003.79,0001.73
2021-11-17 14:09:00,,0830.5,5.01,0.00,22.8,21.9,00.0,31.8,24.5,14.1,0000.0,0012.15,0003.79,0001.75
2021-11-17 14:10:00,,0830.5,5.00,0.00,22.7,21.9,00.0,31.8,24.5,14.1,0000.0,0012.53,0003.79,0001.76
2021-11-17 14:11:00,,0830.5,4.99,0.00,22.7,21.9,00.0,31.8,24.5,14.0,0000.0,0012.92,0003.84,0001.79
2021-11-17 14:12:00,,0830.5,5.01,0.00,22.7,21.9,00.0,31.8,24.5,14.0,0000.0,0013.85,0003.79,0001.82
2021-11-17 14:13:00,,0830.5,5.00,0.00,22.7,22.0,00.0,31.8,24.5,14.0,0000.0,0013.85,0003.76,0001.83
2021-11-17 14:14:00,,0830.4,5.01,0.00,22.7,22.0,00.0,31.8,24.5,14.0,0000.0,0013.83,0003.82,0001.84
2021-11-17 14:15:00,,0830.5,4.99,0.00,22.7,21.9,00.0,31.8,24.5,14.0,0000.0,0014.17,0003.84,0001.83
2021-11-17 14:16:00,,0830.5,5.00,0.00,22.7,22.0,00.0,31.8,24.5,14.0,0000.0,0014.32,0003.88,0001.85
2021-11-17 14:17:00,,0830.5,5.00,0.00,22.7,22.0,00.0,31.8,24.5,14.0,0000.0,0013.79,0003.88,0001.88
2021-11-17 14:18:00,,0830.5,5.00,0.00,22.7,22.0,00.0,31.8,24.5,14.0,0000.0,0014.20,0003.92,0001.92
2021-11-17 14:19:00,,0830.5,5.01,0.00,22.7,22.0,00.0,31.7,24.5,14.0,0000.0,0014.52,0003.89,0001.94
2021-11-17 14:20:00,,0830.5,4.99,0.00,22.7,22.0,00.0,31.7,24.5,14.0,0000.0,0014.19,0003.85,0001.96
2021-11-17 14:21:00,,0830.6,5.01,0.00,22.7,22.0,00.0,31.7,24.5,14.0,0000.0,0013.43,0003.82,0002.00
2021-11-17 14:22:00,,0830.6,4.99,0.00,22.7,22.0,00.0,31.7,24.5,14.0,0000.0,0013.46,0003.87,0002.03
2021-11-17 14:23:00,,0830.6,5.00,0.00,22.7,21.9,00.0,31.7,24.5,14.0,0000.0,0012.87,0003.97,0002.05
2021-11-17 14:24:00,,0830.6,5.00,0.00,22.7,21.9,00.0,31.7,24.5,14.0,0000.0,0012.87,0004.04,0002.08
2021-11-17 14:25:00,,0830.6,5.00,0.00,22.7,21.9,00.0,31.7,24.5,14.0,0000.0,0012.76,0004.01,0002.11
2021-11-17 14:26:00,,0830.6,5.00,0.00,22.7,21.9,00.0,31.7,24.5,14.0,0000.0,0012.31,0003.99,0002.15
2021-11-17 14:27:00,,0830.6,5.01,0.00,22.7,21.9,00.0,31.7,24.5,13.9,0000.0,0012.21,0004.02,0002.18
2021-11-17 14:28:00,,0830.7,5.00,0.00,22.7,21.9,00.0,31.7,24.5,14.0,0000.0,0012.10,0004.03,0002.22
2021-11-17 14:29:00,,0830.8,5.00,0.00,22.7,21.9,00.0,31.7,24.5,14.0,0000.0,0011.92,0004.07,0002.25
2021-11-17 14:30:00,,0830.8,5.01,0.00,22.7,21.9,00.0,31.7,24.5,14.0,0000.0,0011.01,0004.12,0002.30
2021-11-17 14:31:00,,0830.8,4.99,0.00,22.7,21.9,00.0,31.7,24.5,14.0,0000.0,0011.01,0004.13,0002.34
2021-11-17 14:32:00,,0830.7,5.01,0.00,22.7,21.9,00.0,31.7,24.5,14.0,0000.0,0010.95,0004.12,0002.35
2021-11-17 14:33:00,,0830.8,4.98,0.00,22.7,21.9,00.0,31.7,24.5,14.0,0000.0,0011.06,0004.07,0002.35
2021-11-17 14:34:00,,0830.7,5.01,0.00,22.7,21.9,00.0,31.7,24.5,14.0,0000.0,0011.48,0003.99,0002.35
2021-11-17 14:35:00,,0830.9,5.00,0.00,22.7,21.9,00.0,31.7,24.5,14.0,0000.0,0011.82,0004.00,0002.37
2021-11-17 14:36:00,,0830.9,5.00,0.00,22.7,21.9,00.0,31.7,24.5,14.1,0000.0,0012.37,0004.10,0002.40
2021-11-17 14:37:00,,0830.9,5.00,0.00,22.7,21.9,00.0,31.7,24.5,14.0,0000.0,0013.19,0004.11,0002.41
2021-11-17 14:38:00,,0831.0,5.01,0.00,22.7,21.9,00.0,31.7,24.5,14.1,0000.0,0013.41,0004.11,0002.41
2021-11-17 14:39:00,,0831.0,5.00,0.00,22.7,21.9,00.0,31.7,24.5,14.0,0000.0,0013.46,0004.15,0002.42
2021-11-17 14:40:00,,0831.1,5.00,0.00,22.7,21.9,00.0,31.7,24.5,13.9,0000.0,0013.11,0004.10,0002.43
2021-11-17 14:41:00,,0831.1,5.00,0.00,22.7,21.9,00.0,31.7,24.5,13.9,0000.0,0012.98,0004.09,0002.45
2021-11-17 14:42:00,,0831.2,5.00,0.00,22.7,21.9,00.0,31.7,24.5,13.8,0000.0,0012.94,0004.10,0002.45
2021-11-17 14:43:00,,0831.2,4.99,0.00,22.7,21.9,00.0,31.7,24.5,13.8,0000.0,0013.33,0004.13,0002.48
2021-11-17 14:44:00,,0831.2,5.01,0.00,22.7,21.9,00.0,31.7,24.5,13.7,0000.0,0013.02,0004.19,0002.51
2021-11-17 14:45:00,,0831.2,4.99,0.00,22.7,21.9,00.0,31.7,24.5,13.8,0000.0,0012.66,0004.26,0002.53
2021-11-17 14:46:00,,0831.2,5.01,0.00,22.7,21.9,00.0,31.7,24.5,13.8,0000.0,0012.19,0004.30,0002.57
2021-11-17 14:47:00,,0831.2,4.99,0.00,22.7,21.9,00.0,31.7,24.5,13.8,0000.0,0012.19,0004.25,0002.58
2021-11-17 14:48:00,,0831.2,5.01,0.00,22.7,21.9,00.0,31.7,24.5,13.8,0000.0,0011.82,0004.30,0002.60
2021-11-17 14:49:00,,0831.2,5.01,0.00,22.7,22.0,00.0,31.7,24.5,13.8,0000.0,0011.36,0004.31,0002.63
2021-11-17 14:50:00,,0831.4,5.00,0.00,22.7,22.0,00.0,31.7,24.5,13.7,0000.0,0011.65,0004.29,0002.63
2021-11-17 14:51:00,,0831.4,5.01,0.00,22.7,22.0,00.0,31.7,24.5,13.7,0000.0,0011.78,0004.31,0002.63
2021-11-17 14:52:00,,0831.4,4.99,0.00,22.7,22.0,00.0,31.7,24.5,13.7,0000.0,0011.99,0004.36,0002.63
2021-11-17 14:53:00,,0831.4,5.01,0.00,22.7,22.0,00.0,31.7,24.5,13.7,0000.0,0012.05,0004.39,0002.67
2021-11-17 14:54:00,,0831.4,5.00,0.00,22.7,22.0,00.0,31.7,24.5,13.7,0000.0,0012.07,0004.47,0002.69
2021-11-17 14:55:00,,0831.3,4.99,0.00,22.7,21.9,00.0,31.7,24.5,13.6,0000.0,0012.00,0004.47,0002.71
2021-11-17 14:56:00,,0831.2,5.00,0.00,22.7,21.9,00.0,31.7,24.5,13.6,0000.0,0012.21,0004.50,0002.76
2021-11-17 14:57:00,,0831.2,5.01,0.00,22.7,21.9,00.0,31.7,24.5,13.6,0000.0,0012.31,0004.45,0002.76
2021-11-17 14:58:00,,0831.3,5.00,0.00,22.7,21.9,00.0,31.7,24.5,13.7,0000.0,0012.13,0004.44,0002.77
2021-11-17 14:59:00,,0831.2,4.98,0.00,22.7,21.9,00.0,31.7,24.4,13.7,0000.0,0012.82,0004.41,0002.79
